RH
10 9 9 8 9 8 8 8 7 8 7 7 8 8 9 8 9 9 9 8 8 8 7 8 8 9 10 10 10 9 12 14 14 14 12 12 11 11 10 9 10 8 8 7 7 10 15 21 24 25 25 25 21 20 20 21 24 25 39 44 46 53 31 17 30 37 34 31 34 33 31 37 39 38 43 47 46 49 50 49 49 51 53 55 56 65 85 97
9 8 8 9 9 9 9 8 8 8 8 8 8 9 10 9 9 9 9 9 8 8 7 8 7 8 11 11 11 12 13 14 14 13 11 12 11 11 10 9 9 10 8 7 8 9 12 16 19 22 24 22 16 18 18 19 21 27 48 47 46 49 25 19 26 26 31 35 41 40 34 38 41 39 42 47 49 49 49 49 48 48 48 51 57 67 84 90
8 8 8 9 9 10 9 9 9 9 9 9 9 9 9 9 10 10 9 9 8 8 8 8 8 8 11 12 13 14 13 13 14 13 12 12 11 10 9 9 9 10 9 8 9 10 13 13 14 16 19 16 12 16 16 17 20 23 39 41 37 37 26 24 25 25 32 36 41 43 38 41 43 41 44 47 47 47 47 48 47 47 47 47 53 64 77 82
8 8 9 10 10 9 9 9 9 9 9 9 9 9 9 9 9 9 9 9 9 8 9 9 8 8 10 13 14 15 13 16 17 14 13 12 11 11 9 10 9 10 11 8 8 9 11 11 11 11 13 13 10 14 16 16 17 18 33 41 32 27 27 28 28 32 34 33 38 41 39 41 43 42 44 45 49 51 45 46 47 48 48 46 46 52 62 71
9 9 10 10 9 9 9 9 9 10 10 9 9 8 8 9 8 9 9 8 9 9 9 9 8 9 10 12 14 15 15 22 22 14 15 14 12 12 10 10 9 10 11 9 10 8 9 10 10 10 10 11 11 13 15 15 15 19 27 32 27 23 29 30 30 36 37 34 37 41 42 42 41 41 44 44 50 52 44 46 48 48 48 46 45 44 48 54
10 10 10 10 9 10 10 9 9 9 11 10 10 9 8 9 8 9 8 8 8 8 9 9 9 10 11 11 14 15 16 22 20 14 15 15 13 11 10 10 10 11 10 11 12 11 10 10 10 10 10 11 14 15 15 14 14 23 28 26 25 24 28 30 32 37 35 34 40 43 43 42 41 42 44 43 46 47 44 46 47 48 48 45 45 43 42 44
10 10 10 10 10 10 10 10 9 8 9 9 10 11 9 7 8 9 8 8 8 8 9 9 9 12 13 13 15 14 15 18 17 16 16 14 14 11 10 10 10 10 11 12 12 13 12 11 11 9 13 15 16 19 20 16 14 27 35 30 29 30 33 35 36 37 32 35 42 41 38 40 42 43 45 43 44 45 45 46 45 47 48 46 44 42 41 41
11 11 11 10 11 10 10 10 8 8 8 9 11 11 10 8 7 8 9 8 8 9 9 9 11 13 14 14 15 14 15 18 17 17 15 15 15 11 11 10 10 11 12 13 11 13 11 11 11 9 16 18 18 23 22 18 21 33 37 31 34 39 42 40 38 36 33 38 38 35 39 42 41 42 44 44 46 46 45 45 45 45 45 45 44 43 43 42
10 11 11 10 10 10 10 9 8 9 7 9 12 11 10 8 7 8 9 9 9 10 10 12 13 13 17 17 16 16 17 19 18 17 15 15 14 12 12 10 11 12 13 13 11 13 12 13 13 10 17 18 21 28 24 26 28 30 33 33 37 43 43 39 39 39 37 39 33 35 45 44 43 44 44 45 46 47 47 45 45 44 43 43 43 44 45 43
10 10 10 9 10 10 10 9 8 8 7 9 12 11 9 8 8 9 9 9 11 11 11 14 14 15 20 18 16 18 19 18 17 17 14 13 14 13 13 12 11 12 13 13 12 13 11 13 14 11 16 18 26 30 27 31 31 28 31 34 37 39 40 38 41 42 41 41 34 41 52 45 44 49 48 46 46 47 47 46 45 44 43 43 44 44 44 44
10 9 10 9 9 10 9 9 8 8 7 9 12 12 9 8 8 9 9 10 12 11 10 14 16 15 16 13 15 19 18 17 17 16 13 12 14 14 13 12 11 11 13 13 12 12 10 12 12 12 17 20 26 29 27 28 28 28 29 34 37 35 37 40 43 39 40 46 38 40 51 47 44 48 49 45 46 48 45 46 46 45 45 44 45 44 44 44
10 9 10 9 8 10 9 10 9 8 8 8 12 13 11 10 9 9 9 10 13 14 14 15 15 14 12 11 17 21 18 18 18 16 14 14 14 14 13 13 12 12 13 12 12 11 11 13 11 13 18 21 28 29 27 26 26 27 28 36 38 38 42 39 39 35 36 45 39 35 45 57 56 47 47 44 45 49 45 46 47 46 47 46 47 46 45 45
10 9 8 8 9 10 9 11 10 8 10 10 12 13 12 10 8 9 9 11 15 16 16 14 13 13 11 14 18 19 18 19 18 17 15 14 15 15 14 14 14 13 14 14 15 14 15 16 14 16 18 24 32 29 24 23 24 27 30 36 39 47 53 41 35 35 35 41 38 34 43 64 67 47 43 46 46 47 45 47 48 48 48 47 48 47 47 48
8 8 8 9 10 10 10 11 10 10 11 11 11 12 13 11 9 9 10 13 16 17 15 13 14 13 11 16 18 17 18 18 18 16 15 15 15 16 15 16 15 15 17 17 19 19 18 18 15 17 22 28 29 25 28 32 37 40 33 40 57 61 50 40 43 41 36 40 40 41 53 70 69 50 43 46 46 46 46 49 50 49 50 49 49 48 48 48
8 8 8 10 10 10 11 10 10 12 11 11 12 12 13 11 9 9 10 14 17 18 16 14 16 14 13 16 16 17 17 16 16 16 17 17 16 17 19 19 17 17 17 17 19 18 18 17 16 20 25 28 28 29 40 48 57 65 52 46 63 65 48 41 48 49 43 40 37 41 60 75 70 54 44 44 47 46 45 49 52 51 50 51 50 49 49 48
8 8 9 10 10 10 11 10 11 12 12 12 12 13 13 12 11 11 12 15 18 18 16 15 13 11 15 18 15 16 17 17 18 18 18 18 17 18 21 21 20 19 18 19 19 17 16 15 18 22 23 31 44 45 46 52 55 69 74 58 53 58 55 47 45 50 50 44 44 48 64 77 71 57 46 44 48 46 47 51 53 52 51 51 50 49 49 48
9 9 9 10 10 10 10 10 11 12 13 13 14 14 13 13 14 15 17 17 19 18 16 15 12 11 16 18 17 17 20 21 19 19 20 20 19 18 19 20 21 21 19 19 19 18 17 18 23 26 29 41 59 60 50 52 48 52 72 68 56 60 59 50 43 48 52 54 60 64 71 77 69 57 48 46 47 47 48 51 53 53 52 52 51 50 49 48
8 8 9 10 10 10 10 10 12 13 13 13 15 16 16 17 17 17 18 16 15 15 15 14 14 19 20 19 21 21 23 24 20 20 21 21 21 20 20 19 21 20 19 18 17 19 19 22 29 33 41 45 56 70 61 58 57 51 63 64 56 62 65 62 53 52 60 64 69 69 72 75 67 57 50 46 48 48 47 49 52 53 53 54 52 51 50 49
6 7 8 10 10 10 10 11 13 14 14 16 16 17 18 17 15 15 15 14 14 18 21 19 19 24 25 22 22 20 22 23 21 20 21 23 22 22 21 19 18 16 18 22 22 25 25 33 44 47 56 55 55 65 57 57 65 62 70 70 61 61 64 66 60 57 65 70 75 75 72 73 69 62 55 49 49 49 48 49 53 56 56 56 54 53 52 51
6 6 7 9 9 9 10 11 13 13 13 15 15 16 15 13 18 21 17 17 20 23 24 22 22 23 24 24 20 19 21 22 20 19 20 22 21 20 19 18 17 18 29 39 35 29 28 45 60 58 60 64 62 60 54 58 63 60 67 69 68 69 62 58 58 60 66 71 79 78 74 72 69 66 59 52 53 54 53 53 55 58 57 57 56 55 53 52
8 7 7 8 8 9 10 10 11 10 10 14 14 17 16 14 21 24 21 23 23 23 22 22 24 23 24 24 20 19 19 19 18 17 18 19 21 20 18 23 29 30 39 45 38 27 29 47 57 57 60 61 62 62 56 58 59 57 62 65 68 70 63 58 62 67 67 71 77 75 74 74 70 69 61 56 60 58 55 55 55 55 55 56 56 55 54 53
9 8 9 8 8 10 10 10 10 9 10 12 13 18 20 17 17 18 20 26 25 22 22 21 22 23 24 23 21 19 18 20 20 18 19 16 18 20 20 33 43 43 46 49 41 33 40 50 50 53 55 52 58 61 53 54 61 60 63 72 71 66 65 64 67 74 72 73 80 77 76 75 70 71 66 60 62 58 52 52 52 51 52 53 54 55 54 54
7 8 8 7 9 8 10 9 8 8 8 9 11 14 18 16 16 17 18 25 27 23 22 21 21 21 23 23 22 20 18 26 28 22 22 18 19 24 25 35 45 47 50 54 48 41 42 43 45 51 48 47 55 60 57 52 54 57 58 66 63 58 66 66 65 73 72 72 78 79 78 77 74 73 69 62 58 56 53 52 51 50 50 50 50 51 52 53
7 8 6 7 8 7 10 9 7 9 6 8 12 13 16 15 15 17 17 25 29 25 23 22 22 22 23 25 24 23 23 27 30 26 23 24 25 26 27 33 43 47 50 51 48 45 42 36 44 52 50 53 51 54 63 53 51 60 61 61 53 51 65 70 69 73 75 73 75 77 71 67 73 76 71 64 61 59 56 56 55 52 52 52 51 50 52 52
8 8 8 8 7 7 10 9 8 9 6 10 14 14 15 15 19 18 19 31 29 24 26 22 22 24 23 26 25 23 25 25 28 28 24 27 32 32 32 33 37 44 48 46 42 42 39 33 44 53 51 53 47 49 58 57 57 54 50 53 43 47 67 73 74 76 76 72 68 67 56 53 72 84 77 67 67 67 61 62 60 56 54 53 54 54 53 54
7 8 9 7 8 9 11 12 12 8 7 13 14 16 17 19 26 21 29 55 44 23 25 23 22 26 23 25 25 23 28 30 28 26 23 26 32 34 39 42 39 41 46 47 44 41 40 37 47 54 49 46 45 43 48 66 68 38 33 51 48 58 74 72 72 71 71 68 64 61 49 49 62 69 76 76 73 71 65 66 65 60 58 54 54 55 53 55
7 8 7 8 9 7 12 16 13 8 10 13 15 18 20 23 23 13 30 64 50 22 25 27 22 24 24 23 23 25 31 33 26 23 23 27 31 31 41 54 51 46 48 50 43 35 41 46 45 48 45 42 41 34 40 64 57 23 30 54 54 62 70 69 71 70 71 66 66 69 54 54 57 55 78 86 76 76 71 68 66 62 62 57 54 55 52 53
7 7 6 8 8 6 12 15 12 11 10 13 16 19 24 27 18 19 39 45 28 24 30 27 22 22 24 22 20 25 30 30 27 26 25 25 26 26 37 53 57 54 51 49 41 31 44 51 40 40 43 39 32 29 41 51 35 25 45 59 59 64 69 74 73 73 76 58 57 73 57 55 61 57 81 92 81 82 74 66 65 60 62 59 55 55 52 51
7 7 7 7 7 8 9 10 11 11 10 14 17 19 28 26 13 29 51 32 16 31 33 24 25 24 24 25 25 26 26 29 30 27 25 27 24 23 36 44 45 49 45 45 47 38 43 48 40 42 45 40 35 38 53 50 31 34 53 58 58 67 72 72 68 71 76 62 59 68 52 47 51 49 73 90 83 81 70 63 63 57 57 58 55 53 51 50
8 9 8 7 7 7 8 10 11 10 12 13 16 23 24 22 33 42 34 20 22 33 29 25 31 32 34 42 42 35 31 32 30 24 22 26 23 22 35 34 32 48 53 51 54 47 45 47 45 44 41 40 40 42 52 49 35 36 48 45 33 42 55 62 76 73 59 61 67 57 40 37 38 39 60 73 70 72 66 60 62 60 56 54 51 49 48 48
10 9 7 9 7 6 10 9 8 10 12 12 18 27 15 26 70 64 19 16 34 36 35 38 42 50 57 57 49 44 46 39 31 35 40 40 38 36 39 37 41 60 65 57 54 50 47 45 44 41 38 41 36 31 41 48 42 35 36 30 13 21 33 41 65 57 33 48 59 46 38 37 37 36 41 53 63 71 68 57 53 54 49 43 43 44 43 45
12 10 9 9 6 8 11 7 9 11 11 14 17 20 22 33 54 48 30 31 34 37 46 45 49 62 68 65 56 55 58 49 41 51 64 65 64 60 57 58 59 54 46 47 52 51 44 40 43 39 35 38 29 23 34 46 43 34 38 42 37 38 33 35 53 39 25 41 41 36 37 32 34 30 23 34 49 61 65 54 46 45 41 36 38 39 38 42
14 14 13 11 7 8 9 7 12 12 11 18 13 18 50 55 29 28 50 45 30 41 52 51 60 68 65 60 57 58 56 49 46 50 58 67 72 70 68 69 64 51 43 48 56 57 46 38 42 36 30 32 28 22 22 29 32 31 40 43 45 45 27 33 54 34 23 36 31 31 38 34 32 27 26 28 29 42 52 49 45 43 42 41 41 41 40 41
15 18 18 16 11 7 7 9 13 15 15 16 15 24 40 40 27 35 52 50 47 56 56 61 68 61 56 54 53 59 52 44 51 56 59 67 72 73 72 68 64 65 65 54 50 55 42 28 30 29 27 33 37 33 25 26 31 37 43 32 35 50 32 29 48 35 29 46 43 29 32 46 41 28 38 42 36 48 51 48 51 47 44 47 46 46 43 40
15 18 17 18 17 9 9 12 12 16 15 15 35 49 34 25 37 47 51 56 63 60 53 68 72 53 55 65 60 58 46 38 55 67 66 66 66 66 66 66 67 70 61 40 41 55 38 26 37 37 34 38 40 43 40 31 22 29 40 28 24 45 49 50 56 48 46 63 73 54 39 53 43 23 48 65 58 59 53 51 56 48 45 50 49 46 41 39
15 16 15 18 20 15 13 13 15 20 17 23 49 61 50 43 42 49 58 55 57 59 51 59 66 52 52 64 65 60 44 37 51 62 63 62 60 62 67 68 68 66 55 37 46 59 37 27 49 49 40 41 40 41 42 29 16 19 25 23 23 36 57 64 55 53 54 51 60 56 42 46 31 16 48 73 64 58 58 61 58 49 50 53 50 44 39 40
14 14 14 16 17 20 20 14 17 20 15 31 53 52 53 56 50 66 80 59 55 69 56 45 49 46 49 53 56 62 51 37 46 57 56 49 44 54 70 68 57 61 67 53 50 61 47 33 49 51 36 37 43 42 40 32 26 21 17 24 33 37 51 57 47 56 63 48 45 49 45 46 32 24 42 53 47 47 55 63 62 57 60 59 48 36 33 37
14 13 12 14 15 18 21 18 22 21 15 45 75 64 58 62 55 67 77 63 65 74 62 51 44 43 53 49 44 61 57 38 49 61 52 42 38 48 64 61 50 60 72 62 49 57 56 38 39 47 41 42 45 42 44 39 28 23 20 26 32 31 39 47 49 54 49 43 54 62 60 54 41 41 42 31 31 39 43 56 68 66 57 47 35 26 27 32
16 14 12 17 17 13 18 23 22 17 18 52 78 64 56 64 59 60 65 63 67 64 56 55 48 46 55 51 46 59 57 44 53 59 45 39 41 45 54 53 49 58 65 58 50 58 61 41 29 35 40 44 44 42 50 45 31 30 30 31 39 44 49 50 53 56 46 47 65 67 63 54 43 49 44 24 28 39 37 47 64 55 33 25 23 22 25 27
19 17 15 16 17 16 17 15 17 29 45 63 71 63 57 57 55 62 66 63 59 51 50 57 54 48 53 58 54 55 61 60 59 56 47 46 47 45 53 60 62 68 63 51 51 60 56 36 29 34 36 40 42 46 52 45 38 43 42 42 45 44 47 44 46 62 62 60 72 71 57 43 36 43 38 25 31 39 39 44 51 37 18 17 22 22 25 27
16 19 18 12 15 19 15 17 34 61 76 71 68 71 63 48 49 61 66 65 59 47 48 60 60 53 55 59 53 52 66 71 66 61 55 52 47 41 49 65 74 74 58 44 53 59 42 30 40 43 31 32 41 50 52 44 42 49 51 57 57 51 50 40 41 68 75 65 70 72 51 28 27 38 34 28 33 35 34 39 41 27 16 20 23 23 28 29
16 25 21 10 15 13 13 36 61 74 80 71 64 66 60 50 49 54 55 57 56 45 45 57 63 64 64 60 56 60 65 64 64 62 56 55 51 44 50 62 71 72 57 47 58 59 44 41 47 41 26 25 36 49 56 53 48 47 47 54 60 63 56 36 40 67 73 66 71 81 68 36 27 38 34 28 33 30 26 32 36 26 20 25 26 25 31 32
17 24 16 11 16 9 16 48 66 70 74 69 61 60 59 57 51 49 52 52 49 45 49 58 58 52 53 56 60 62 54 50 56 56 58 68 61 48 52 56 64 72 61 52 59 58 52 46 39 40 39 31 35 48 53 53 51 50 55 58 55 62 64 56 64 71 65 60 62 74 71 38 30 53 50 37 39 36 30 33 36 32 27 28 30 29 32 34
14 17 14 14 13 9 26 51 61 68 66 53 51 54 52 52 52 53 55 53 51 51 54 62 55 43 49 60 61 58 48 40 45 51 60 71 60 46 50 57 62 59 45 45 50 42 40 39 30 36 38 29 40 55 48 46 52 56 71 73 61 67 77 75 74 66 59 60 54 58 54 25 30 64 63 54 63 59 44 35 35 40 36 31 32 32 32 34
11 11 11 13 9 10 29 44 52 68 70 55 53 55 51 49 52 56 53 50 54 51 45 48 50 48 57 61 57 58 55 42 43 52 59 64 63 57 54 57 59 47 35 45 47 34 37 41 28 25 24 18 27 36 37 49 56 53 64 72 65 66 66 62 66 65 63 66 59 54 44 20 22 41 39 46 64 62 47 35 34 39 36 31 33 32 32 34
12 15 18 17 12 13 27 32 34 51 66 64 53 52 57 54 51 53 50 45 48 48 42 43 50 54 57 59 61 63 61 54 51 55 60 64 66 63 58 59 54 42 37 44 48 49 56 55 42 34 28 21 17 15 27 45 43 32 43 57 67 72 61 61 78 76 68 74 68 50 39 30 26 26 23 28 36 38 37 32 30 32 30 31 34 32 31 32
16 29 34 26 16 21 32 31 29 37 48 53 46 45 56 57 49 48 47 44 45 48 49 49 50 52 52 56 62 62 62 63 57 54 60 69 70 60 59 66 61 47 44 48 53 57 54 48 52 53 40 29 25 20 27 36 28 23 32 40 55 73 71 66 69 59 56 67 57 35 37 44 36 26 25 28 27 29 32 30 29 30 31 34 35 33 32 31
24 34 35 28 25 35 40 32 34 44 49 55 59 55 59 61 54 49 48 48 49 49 49 51 53 56 59 57 52 55 60 56 52 56 62 69 72 60 53 63 67 59 54 54 56 54 43 38 51 59 51 44 41 36 41 47 41 39 43 39 43 62 74 69 58 48 49 52 36 22 32 40 31 23 24 26 26 27 28 28 30 33 36 37 35 32 30 28
26 29 27 27 29 39 45 36 34 46 54 64 69 61 58 58 51 53 58 56 56 55 48 48 54 62 72 66 52 56 61 42 33 50 64 66 67 63 55 54 62 67 61 57 56 45 37 52 72 74 62 56 55 50 51 58 57 50 50 48 44 50 61 63 54 46 47 48 38 31 35 35 27 25 25 24 24 27 29 32 34 37 38 35 31 29 26 25
18 19 20 27 33 38 43 37 34 45 53 56 57 54 59 59 47 50 60 55 55 60 53 50 59 69 78 75 61 59 61 45 31 40 58 61 58 67 67 54 60 71 60 57 61 42 31 61 92 88 66 55 58 58 53 56 62 55 46 44 44 48 55 58 55 52 54 56 50 46 51 50 37 29 30 29 29 32 36 38 37 34 32 30 29 26 24 25
11 11 11 22 36 42 41 36 40 51 49 45 48 49 57 62 50 47 55 50 51 58 55 54 63 71 76 77 71 61 54 51 46 43 50 54 48 55 55 45 57 72 62 59 64 48 38 55 71 68 54 46 50 58 56 53 55 55 46 38 38 47 57 56 53 54 55 56 56 58 63 55 38 31 33 34 36 42 43 41 34 28 26 27 26 23 23 26
8 10 8 16 33 42 41 40 44 42 31 33 47 51 52 55 47 41 41 42 49 52 46 49 56 61 67 71 68 59 49 50 54 51 53 56 53 54 50 44 51 60 65 70 71 65 58 53 54 57 55 54 55 56 55 52 46 42 37 31 27 32 43 46 43 45 47 49 54 56 50 37 29 32 33 32 38 45 42 35 29 26 26 25 23 22 24 26
Wind_Speed
7 7 7 6 6 5 4 3 2 2 2 3 3 3 4 4 4 2 1 1 1 1 1 1 2 2 1 4 6 7 6 4 2 1 2 6 7 6 6 6 5 4 4 3 4 6 7 8 9 8 7 5 3 4 4 5 7 5 2 3 1 3 2 2 3 6 8 5 3 7 11 16 10 10 15 18 25 27 28 30 26 25 26 24 20 18 20 21
7 7 6 6 6 5 4 2 2 1 2 3 4 4 4 5 5 4 3 2 2 2 1 1 1 1 3 6 8 7 7 5 3 4 6 8 8 8 7 6 6 5 4 2 3 5 6 7 7 8 8 5 3 4 4 5 7 3 3 3 1 3 2 5 3 7 10 11 11 14 15 15 9 6 9 9 15 21 23 21 23 27 23 23 21 20 21 21
6 6 5 5 5 4 4 3 2 1 1 2 4 5 6 6 6 6 5 4 3 3 2 1 1 1 4 8 8 7 6 4 4 8 10 9 9 9 7 6 6 5 3 2 3 4 5 5 4 6 7 5 3 4 4 4 5 1 4 3 1 5 5 9 9 13 17 23 20 16 18 21 14 8 13 15 15 18 14 11 15 21 18 20 20 20 21 20
5 5 5 6 5 5 5 4 3 1 1 2 3 4 5 6 6 6 6 5 4 2 1 2 1 1 3 8 8 6 5 2 7 12 11 10 9 8 7 5 5 4 3 1 2 3 4 5 4 4 6 5 3 4 4 3 3 2 3 2 4 8 7 10 15 21 22 26 24 17 20 21 16 13 13 14 13 11 8 9 11 14 17 18 18 19 18 19
4 5 5 5 5 5 6 5 5 3 2 1 2 3 4 5 5 5 5 5 3 2 1 2 2 2 2 6 8 5 2 1 7 11 10 10 8 7 6 4 3 3 2 0 2 3 4 6 6 5 5 3 2 3 3 2 6 7 5 3 5 7 7 8 15 21 21 25 25 18 15 12 14 17 11 10 10 4 5 9 12 15 18 17 17 17 16 17
4 5 5 5 6 6 7 7 7 6 4 3 2 2 3 5 5 5 5 4 2 1 1 2 2 3 4 6 7 5 2 2 7 10 9 9 8 6 4 3 2 1 0 1 3 2 3 6 7 7 4 1 2 1 2 2 7 6 5 9 9 9 12 11 13 16 18 24 20 14 16 18 20 20 18 22 17 9 11 12 15 17 17 17 17 16 16 16
5 6 6 6 7 7 7 8 8 7 5 5 4 2 1 4 6 5 5 3 2 1 1 2 3 5 8 10 9 6 7 7 9 9 8 8 7 5 3 2 2 1 1 2 3 2 4 7 9 8 4 3 2 2 8 9 10 9 4 9 14 18 20 16 18 19 23 27 22 21 22 17 18 14 15 23 18 15 16 14 16 17 17 17 16 16 16 16
6 7 7 7 8 8 8 8 8 7 6 6 5 3 0 2 4 6 5 4 4 3 3 3 4 8 11 12 8 7 11 12 12 10 8 7 5 3 2 1 1 1 2 3 4 4 5 6 8 8 3 2 2 4 10 13 12 8 4 8 15 20 24 25 28 30 33 33 29 30 25 20 23 21 16 16 16 17 17 16 16 16 16 15 15 15 15 15
7 7 7 7 8 9 9 8 8 7 6 6 5 4 2 2 4 6 6 6 5 4 4 5 6 9 11 8 4 6 10 12 14 13 10 6 3 2 3 1 1 2 3 3 3 5 5 6 8 6 3 4 4 4 6 5 5 7 11 15 18 20 23 29 30 29 31 28 27 29 21 20 22 17 13 10 13 16 16 16 16 15 15 14 14 15 14 14
6 6 6 7 8 9 9 8 8 7 6 5 4 4 3 4 5 6 8 8 7 6 6 6 7 9 8 4 3 5 8 12 14 13 10 7 3 2 3 1 1 2 2 2 2 3 5 6 6 7 7 6 5 4 2 4 12 21 25 22 22 20 15 21 24 23 23 15 20 23 12 10 8 3 5 7 13 15 15 15 14 14 13 14 14 14 13 12
6 6 6 7 8 9 9 9 9 7 6 5 4 4 4 5 7 9 10 10 10 11 11 11 11 10 6 5 11 9 10 13 14 13 10 7 3 2 3 2 2 2 2 2 2 3 5 6 7 8 5 4 6 11 11 19 30 34 33 22 16 19 14 16 19 15 13 10 21 28 14 9 8 3 6 11 13 12 14 14 13 12 12 13 13 12 12 11
5 5 6 7 8 9 9 9 9 7 5 5 3 4 6 6 8 11 12 12 12 12 12 12 11 8 4 10 17 12 11 13 13 12 9 6 4 3 4 4 3 4 3 3 4 5 6 6 6 6 5 7 7 10 13 28 35 28 24 15 7 12 10 6 7 5 6 9 15 18 8 6 8 3 9 12 13 12 13 13 12 12 11 12 11 11 11 10
4 5 6 7 8 8 9 9 9 8 7 6 4 3 5 7 9 11 12 13 12 10 9 9 7 4 3 10 15 12 11 12 12 9 7 6 6 5 6 7 6 8 7 7 7 7 8 7 5 9 12 9 5 9 17 25 24 12 10 10 6 4 4 5 1 4 5 7 6 1 2 1 3 4 10 12 14 13 12 12 12 11 11 11 11 11 11 11
2 4 5 6 7 7 8 9 9 8 8 7 5 4 5 7 10 11 12 13 10 8 8 8 6 5 8 10 11 14 12 10 10 9 8 7 7 8 10 10 10 11 11 11 11 9 10 8 9 13 14 12 14 20 18 11 8 5 4 4 4 3 1 5 6 2 4 1 6 4 2 2 5 7 11 13 13 11 10 12 12 12 12 12 12 11 11 11
1 3 4 5 6 7 8 8 8 8 8 8 8 7 7 9 10 11 12 12 10 8 7 7 5 4 10 10 9 14 12 9 10 12 12 9 9 11 12 11 12 13 13 14 13 11 9 8 10 12 10 13 20 16 7 3 3 4 4 1 2 3 3 1 8 7 2 0 3 4 3 2 4 11 14 13 10 9 10 12 12 13 13 12 12 12 11 11
1 2 3 4 5 6 7 7 7 7 8 9 11 11 10 10 10 11 12 10 8 5 5 8 8 6 7 7 7 14 16 13 12 11 10 9 9 11 11 10 10 11 11 11 10 9 7 6 12 14 10 9 9 6 5 4 2 3 3 3 1 4 3 1 4 11 7 1 6 6 3 1 3 12 16 12 11 11 12 13 13 13 13 13 13 13 13 13
2 2 2 2 4 5 6 6 5 6 8 11 13 13 12 12 11 11 10 8 6 4 4 7 7 8 9 8 8 16 20 15 12 8 7 7 6 7 7 7 10 10 9 8 6 5 6 7 9 9 9 7 3 4 5 1 2 2 3 3 1 3 3 1 1 10 14 3 4 8 4 2 1 11 16 13 13 13 13 14 14 14 15 14 15 15 14 14
3 2 2 1 2 4 4 4 4 5 8 10 13 13 12 11 9 9 8 6 6 5 4 6 6 4 8 13 11 13 18 15 10 7 6 6 5 5 5 6 8 9 6 7 7 8 8 8 7 3 6 6 4 5 4 3 4 4 2 3 2 2 3 3 1 6 11 7 5 6 4 2 1 8 13 14 14 14 14 14 15 16 16 16 17 17 16 16
2 2 2 1 1 2 2 5 5 7 9 10 13 14 12 12 11 11 13 10 9 7 3 10 11 5 2 15 13 7 14 16 9 5 4 6 8 7 7 7 6 6 5 5 8 13 9 7 8 4 4 5 4 2 3 4 5 6 4 4 4 3 1 1 1 3 5 6 6 4 3 4 4 5 10 14 15 15 14 14 16 17 18 18 18 19 18 18
2 2 2 1 0 0 2 7 10 12 14 16 17 14 12 14 11 13 22 24 22 16 8 10 14 9 6 15 13 6 11 16 12 8 4 4 7 7 8 6 8 11 8 2 4 10 10 7 6 2 4 6 7 5 2 1 5 7 6 5 4 4 2 1 2 3 4 4 4 3 3 5 6 5 10 15 15 14 14 16 18 19 20 21 21 21 21 19
1 2 2 1 1 2 3 9 15 14 14 14 12 7 4 6 6 8 20 24 22 20 17 14 12 11 11 16 17 8 8 15 17 15 10 2 2 3 7 6 7 9 7 3 2 7 10 7 3 4 6 6 6 2 4 5 6 7 6 6 5 3 1 1 2 3 6 4 2 2 4 4 6 5 10 14 13 14 18 19 20 22 22 23 24 23 23 21
2 2 2 2 2 3 5 10 15 13 8 8 6 4 3 5 10 15 18 16 15 17 18 17 14 12 9 13 18 11 8 15 17 19 17 9 5 4 7 9 7 4 6 5 4 5 8 5 5 7 5 2 5 5 7 8 7 6 4 4 3 2 2 1 1 5 6 2 1 1 2 5 6 5 9 15 15 16 20 21 20 21 23 25 26 26 25 23
2 2 2 2 3 4 6 8 12 13 10 10 9 5 8 15 17 19 19 14 11 13 15 17 17 16 11 8 14 14 14 14 14 17 19 15 14 13 11 10 7 4 7 6 5 4 5 2 7 7 5 3 6 8 7 8 6 4 4 4 2 1 2 1 1 3 4 2 3 4 2 4 5 4 7 16 20 18 19 22 22 22 23 24 25 25 27 27
2 1 2 2 3 5 7 7 8 9 9 10 9 11 18 19 18 17 15 10 7 8 12 13 16 18 15 11 9 12 17 17 14 16 17 13 12 11 10 8 7 6 5 6 8 8 4 4 8 6 6 4 6 8 7 6 4 2 2 5 3 2 2 2 2 2 3 4 4 5 1 4 4 5 7 11 17 19 20 21 24 27 27 25 25 26 28 28
3 1 1 1 2 4 6 6 6 7 7 11 14 18 20 17 13 10 7 7 3 6 8 8 12 15 15 13 6 4 10 14 18 18 14 11 7 4 5 5 6 3 1 3 9 8 3 6 6 4 7 6 7 7 5 3 3 3 1 5 5 4 4 4 3 3 3 3 1 3 2 4 2 5 8 5 8 15 18 20 25 29 30 30 30 30 30 30
4 3 1 2 2 3 6 5 4 5 7 13 19 20 18 12 8 5 3 5 2 6 7 6 8 11 14 15 7 2 4 6 13 17 12 9 6 4 4 4 5 2 4 3 5 3 2 7 6 5 6 7 8 5 2 3 5 2 1 4 5 5 6 6 5 3 1 1 1 2 2 3 4 4 6 4 6 11 12 17 24 28 31 33 36 35 33 32
4 4 3 3 3 3 5 5 5 6 7 13 22 22 15 8 7 5 3 5 3 4 5 5 5 8 11 15 10 4 1 6 6 14 17 10 4 5 4 3 3 2 1 3 4 1 2 7 8 6 6 7 7 4 1 4 5 1 1 2 4 5 6 6 5 3 2 1 2 2 3 1 4 4 3 2 7 9 10 14 21 27 31 35 38 38 37 35
5 4 4 3 3 4 4 4 5 6 6 13 23 21 12 6 5 5 4 4 3 3 4 4 4 7 8 13 17 10 4 7 4 9 17 13 6 7 6 3 3 1 3 4 3 1 1 5 7 5 6 5 2 1 2 4 3 2 1 0 2 5 5 5 5 3 1 2 2 3 2 0 5 5 3 1 3 8 12 14 18 27 33 36 39 40 40 38
6 4 3 3 4 5 5 4 5 6 6 14 23 20 10 5 4 5 5 3 3 2 3 3 3 7 7 8 16 16 10 9 6 6 10 13 11 12 9 5 6 6 7 6 5 2 0 1 2 4 4 2 2 4 3 4 1 2 3 3 3 5 5 4 4 2 3 2 3 5 4 1 5 5 2 1 2 7 11 11 15 25 32 36 40 41 41 39
7 5 2 3 4 4 6 5 5 6 7 15 22 19 9 4 4 4 3 1 1 2 3 5 3 7 10 6 9 14 10 9 10 9 8 10 13 16 12 6 6 7 7 8 5 0 1 0 1 3 2 3 4 4 3 3 1 2 4 5 6 5 4 3 2 3 4 2 5 5 6 4 3 6 3 3 5 7 7 7 10 18 25 31 37 40 40 39
8 7 4 1 4 4 5 5 5 7 9 14 20 17 9 2 4 6 1 2 1 3 4 4 3 5 8 4 4 9 7 7 12 10 8 7 8 12 10 4 4 5 4 6 5 4 5 3 1 2 3 3 2 2 1 1 3 5 3 3 3 3 4 3 4 4 2 4 6 3 3 4 2 7 5 5 7 6 7 6 7 11 17 23 29 34 37 38
8 8 5 2 3 4 5 5 5 8 10 14 19 16 9 2 3 2 1 3 1 2 2 1 3 4 4 3 4 5 3 5 8 7 4 4 4 7 6 2 1 3 3 3 2 4 4 1 4 4 3 5 3 1 2 3 4 5 4 5 3 2 3 2 3 1 3 5 4 1 1 1 6 9 9 9 10 10 12 13 13 14 17 18 20 25 30 33
8 8 7 5 2 4 6 6 6 10 13 18 20 13 6 4 0 2 2 2 1 1 1 1 3 2 2 4 4 4 3 2 5 5 2 2 4 3 3 2 1 2 1 0 1 3 3 4 6 3 2 5 4 3 1 3 5 4 3 4 3 2 3 2 3 2 4 5 3 2 1 2 5 6 9 11 10 12 14 18 20 20 20 19 18 18 22 27
7 7 7 8 7 5 7 7 9 15 20 20 16 6 5 2 2 1 2 2 1 2 1 1 3 3 3 4 2 3 2 2 3 4 3 3 4 3 4 5 4 3 2 2 1 1 1 3 4 2 2 5 4 3 3 2 2 2 2 4 3 4 3 3 4 3 4 4 4 3 1 3 3 3 7 8 8 10 12 15 17 19 21 21 19 18 20 24
7 7 6 9 10 7 9 10 14 20 22 15 7 5 3 2 3 1 1 3 1 2 2 1 3 4 3 3 3 1 1 1 3 4 4 3 2 1 2 4 4 3 2 1 0 1 2 3 5 2 2 2 2 1 2 4 2 2 2 3 1 3 4 2 3 5 2 3 4 2 3 5 4 5 5 4 8 11 12 14 14 18 21 20 21 23 24 26
9 9 8 10 11 9 8 11 18 21 16 7 6 5 3 3 2 3 2 1 0 0 1 2 3 4 3 4 3 3 2 2 3 3 3 2 1 1 1 2 2 2 3 2 1 1 2 3 4 3 3 0 2 2 1 1 1 0 1 0 2 3 5 4 1 0 3 1 4 2 4 5 4 6 5 3 6 9 9 12 16 20 21 19 23 28 28 29
10 11 13 13 13 10 7 11 17 17 8 4 7 2 3 2 2 2 1 1 1 1 3 1 1 2 1 2 3 4 4 2 2 3 2 0 0 1 1 2 1 1 1 2 2 2 3 2 4 0 1 2 0 1 1 1 2 1 1 3 2 1 3 4 0 3 3 2 4 2 5 5 2 4 6 5 5 9 8 10 14 19 20 21 27 30 29 31
8 10 13 15 15 11 6 9 13 13 5 6 6 2 2 1 1 2 1 1 1 2 4 2 1 0 1 0 2 4 4 2 2 3 1 1 0 2 1 1 1 1 1 3 2 1 3 1 5 1 2 4 3 1 1 3 2 1 3 4 3 1 1 1 1 1 0 3 5 4 5 5 4 5 5 5 8 9 9 7 8 13 19 23 27 28 28 30
4 5 9 12 11 11 8 7 10 9 5 6 3 2 1 1 1 1 1 1 1 3 3 2 1 1 2 2 1 3 3 1 1 2 1 0 0 2 2 1 2 1 1 3 3 0 2 2 3 3 1 3 4 2 2 2 2 3 3 2 2 2 4 2 2 3 2 2 4 4 5 4 7 7 7 10 11 9 9 7 6 13 19 21 23 24 25 27
2 2 7 9 5 7 8 6 7 6 6 4 3 2 1 1 1 1 1 0 1 2 1 2 2 2 1 1 1 1 1 1 1 2 1 1 0 2 2 3 2 1 1 2 3 0 2 2 3 5 3 2 1 2 5 5 3 1 1 1 1 1 1 1 0 2 4 2 3 2 5 7 6 5 8 11 10 9 10 8 9 15 18 18 20 22 23 24
1 2 5 7 4 3 4 7 8 7 5 3 2 2 0 2 3 2 1 2 1 2 2 3 3 2 2 1 1 1 1 1 1 1 1 1 1 1 3 5 4 1 1 2 2 0 1 2 3 3 3 2 4 4 4 5 5 4 3 3 3 2 2 0 3 2 2 2 4 3 5 11 5 5 8 10 9 9 12 11 12 17 18 18 19 20 22 24
3 2 4 7 6 4 6 7 7 5 4 3 3 3 2 3 3 2 1 2 2 2 3 3 2 2 2 2 1 1 1 1 0 1 1 2 3 3 4 5 4 2 2 2 1 2 2 3 1 3 4 5 6 4 1 3 4 4 3 3 3 3 5 4 4 4 0 2 2 3 3 10 5 6 7 8 9 11 14 13 15 19 19 18 19 20 21 24
6 5 3 6 9 8 8 6 6 4 4 3 3 4 3 3 2 2 2 2 1 1 2 2 1 1 1 1 1 2 1 1 2 2 2 3 3 3 5 5 4 3 3 1 1 2 2 2 1 4 5 3 4 4 1 1 2 2 2 2 4 3 3 5 5 3 2 4 2 1 5 9 4 3 5 7 9 12 14 15 17 20 20 19 20 21 22 25
14 12 8 4 3 2 4 4 2 2 2 2 4 4 3 3 3 2 1 1 1 1 2 1 1 1 1 1 2 2 2 1 1 2 2 3 3 3 5 5 5 5 3 2 2 4 2 0 2 2 6 6 6 6 4 3 0 3 4 2 3 3 5 3 2 2 2 6 8 4 9 10 5 1 3 6 7 9 15 19 19 20 22 21 22 23 24 26
10 10 13 11 4 3 6 8 9 5 2 4 4 2 2 4 4 3 2 1 1 2 2 1 2 2 2 2 2 1 1 1 1 1 0 1 3 4 7 7 6 5 5 4 4 5 3 2 3 2 2 4 4 4 4 3 1 2 2 3 5 5 7 3 1 3 4 6 8 7 10 12 7 5 6 7 6 8 15 20 20 21 23 22 23 24 24 25
3 3 7 12 13 14 14 12 12 9 5 4 4 1 1 2 1 2 2 2 1 2 3 2 2 2 2 1 1 1 2 0 0 0 1 2 3 3 6 8 7 5 4 3 4 3 2 1 4 6 6 7 8 8 4 1 1 4 5 5 6 6 7 5 4 4 6 3 5 10 14 16 17 15 14 13 11 10 12 17 20 20 20 21 24 25 24 25
4 2 1 4 9 14 14 10 9 8 5 5 3 1 2 1 1 1 1 0 1 2 2 2 2 2 1 2 1 1 2 1 0 1 2 4 3 2 4 7 7 7 5 5 4 3 3 2 5 7 9 10 10 10 4 0 5 8 8 9 8 8 7 7 8 10 5 3 9 16 13 13 19 21 17 15 14 11 10 16 20 21 21 24 25 24 24 26
3 3 4 4 2 4 5 4 7 9 6 4 3 2 2 2 1 2 1 1 2 2 1 1 1 2 3 4 3 1 2 1 1 2 1 2 2 2 1 4 6 8 8 6 4 4 4 4 5 4 7 10 10 10 7 4 8 9 10 13 12 9 10 13 19 17 8 7 18 18 11 12 18 21 18 15 16 14 15 20 23 24 25 26 24 22 24 26
9 8 6 6 5 5 6 6 11 12 6 3 3 2 3 4 4 3 1 1 1 1 1 1 4 4 4 4 3 2 3 1 2 4 2 2 2 0 1 3 3 6 7 5 2 3 3 3 3 1 5 9 9 11 8 5 7 9 12 15 13 12 14 16 20 19 14 16 21 21 19 18 19 21 20 22 25 22 22 26 28 28 28 25 22 22 24 27
10 8 9 12 11 9 9 7 9 8 4 2 3 1 3 6 5 3 2 3 1 1 2 2 5 4 4 4 4 4 7 6 4 5 4 4 2 2 3 3 2 4 4 2 1 2 2 3 1 4 4 8 6 5 5 3 6 10 15 16 13 12 13 15 17 16 14 17 20 21 19 19 22 23 20 26 32 26 22 26 28 28 27 23 22 23 24 27
9 10 17 19 10 3 3 3 3 4 2 1 2 3 3 5 7 4 3 4 4 3 4 4 4 3 3 3 5 8 11 9 7 9 8 6 5 5 4 3 4 5 3 2 1 2 3 3 2 6 3 7 2 5 6 6 6 11 18 20 16 12 10 11 12 11 11 14 16 14 12 15 19 16 12 17 22 18 18 22 24 26 26 24 23 24 26 28
15 17 16 13 6 1 2 2 2 3 2 2 3 4 4 5 8 7 3 4 6 5 4 5 6 4 2 4 7 9 10 9 10 11 10 10 11 10 8 7 5 6 5 4 1 1 3 2 1 2 2 6 3 4 6 7 8 11 13 13 12 11 10 9 10 11 13 12 8 8 12 15 12 8 8 10 10 10 16 21 24 26 26 23 23 25 28 30
Wind_Direction
84 80 77 74 73 79 85 102 127 166 180 192 194 192 186 181 188 178 160 121 126 178 33 358 22 39 175 170 170 166 168 169 128 65 15 7 358 341 333 338 339 330 309 277 213 199 201 204 213 217 216 214 221 225 203 208 202 183 147 106 215 192 137 290 199 150 127 133 86 68 101 117 101 79 86 74 68 71 76 76 81 95 99 101 112 132 141 147
86 79 73 68 65 70 70 82 98 143 185 205 210 216 213 203 203 201 205 203 195 202 189 318 28 77 176 172 172 171 170 160 87 38 18 1 352 344 335 340 350 341 321 289 215 198 195 199 209 214 210 204 217 210 198 206 190 158 97 101 249 193 48 349 172 132 117 128 104 86 92 89 81 83 96 84 51 63 73 66 85 95 96 109 120 134 145 155
81 70 59 55 57 64 66 69 65 81 208 222 224 225 223 222 219 217 222 223 225 218 217 307 357 93 183 182 178 173 172 156 36 11 2 353 344 342 340 345 356 351 331 302 235 207 190 186 194 206 200 193 214 214 207 204 193 140 91 88 212 171 59 36 105 121 126 128 108 91 91 75 67 95 108 107 70 54 58 51 81 89 96 113 122 136 146 155
60 50 44 49 58 63 60 55 42 10 297 249 239 235 228 230 231 233 240 241 244 241 269 322 345 37 191 195 186 173 169 138 12 359 348 340 333 331 342 350 356 355 344 317 247 221 203 190 183 183 188 198 221 218 224 208 180 60 69 139 168 148 76 57 105 117 122 120 109 103 94 75 69 90 109 116 83 45 47 66 88 96 104 115 127 137 144 151
50 44 50 58 62 59 49 41 28 14 359 316 260 240 230 231 234 240 245 250 258 265 326 7 21 46 164 193 186 177 155 19 350 350 338 330 323 316 338 350 351 357 13 86 217 213 200 190 182 162 166 186 171 196 240 162 120 69 38 77 119 129 98 90 109 112 117 112 105 94 84 92 88 69 68 106 102 85 86 96 112 113 115 122 129 136 144 148
64 65 68 64 54 47 40 32 24 19 14 7 347 269 233 222 222 227 229 237 245 256 1 37 61 83 125 166 178 186 145 48 346 347 337 326 317 309 327 337 347 350 83 139 173 180 177 175 176 164 148 131 142 139 0 115 128 93 27 40 65 106 111 116 111 110 116 103 91 89 99 108 95 66 61 86 96 118 117 116 119 115 120 126 131 138 143 142
80 76 68 54 44 37 32 29 23 19 12 10 7 346 255 219 207 207 208 199 186 152 104 113 110 116 125 132 142 131 88 49 3 353 340 329 317 310 319 327 342 314 165 173 192 183 155 160 166 156 121 92 137 65 64 82 100 103 69 48 68 89 99 110 110 108 106 95 93 105 104 91 91 88 74 84 99 119 119 119 118 118 123 128 135 137 138 137
81 71 56 44 35 29 27 23 19 17 10 10 14 28 51 213 195 194 183 160 156 141 144 147 139 144 138 132 128 84 55 31 8 0 347 341 326 311 340 349 305 228 164 183 204 188 154 139 151 146 120 110 127 126 102 84 71 81 108 91 84 87 97 105 103 101 98 97 103 99 87 81 94 103 88 90 114 121 123 125 123 126 130 134 137 133 134 137
78 66 53 43 33 26 22 18 16 13 7 7 15 37 83 149 174 177 153 141 137 129 134 136 145 151 149 152 139 57 33 15 5 359 349 349 339 342 27 19 240 199 180 178 178 184 167 132 137 142 143 126 102 126 126 88 63 95 111 106 101 98 103 105 98 98 100 102 104 93 88 98 98 92 83 104 129 128 132 132 133 138 140 139 135 134 138 140
79 64 52 37 26 22 19 17 15 11 7 4 19 40 67 122 146 148 139 135 121 113 113 124 148 148 155 171 101 59 17 8 2 354 350 353 352 18 22 9 175 168 173 163 145 160 155 136 129 127 119 104 74 46 46 126 119 113 107 98 101 106 103 104 102 103 100 99 108 106 108 103 97 85 95 143 141 136 143 139 143 149 146 142 139 142 143 145
74 58 44 29 20 17 15 16 15 11 7 2 30 60 67 99 128 134 135 133 115 104 100 109 121 119 133 107 74 53 13 9 1 357 0 5 21 53 45 65 101 140 141 109 118 122 129 136 136 134 111 89 80 58 73 121 122 117 108 90 85 98 99 103 108 105 89 95 109 110 108 65 48 82 134 165 153 148 157 149 152 155 151 147 146 147 146 151
70 51 34 26 20 14 11 13 11 8 6 9 37 72 75 91 120 132 139 141 124 103 98 107 115 114 104 69 60 39 12 10 3 4 11 30 65 74 71 88 102 115 113 96 101 106 110 122 141 142 119 126 112 69 98 124 122 117 107 97 91 96 97 100 116 121 104 138 119 96 93 38 17 93 146 166 163 162 162 155 156 154 153 151 152 155 155 160
70 45 30 21 17 14 11 9 8 9 14 23 41 76 87 98 116 130 140 144 129 104 100 105 112 121 85 64 52 31 18 14 10 15 27 55 81 83 80 86 101 103 103 102 96 102 105 106 135 126 114 115 102 110 132 128 117 109 91 106 143 96 24 345 38 152 125 167 201 25 60 328 317 168 163 167 165 164 159 155 155 153 155 155 159 162 161 161
64 36 22 13 14 16 12 10 13 15 22 36 55 83 105 112 119 130 137 140 129 104 98 90 83 90 87 80 47 26 26 23 25 43 51 63 78 84 87 87 98 105 104 100 95 103 108 112 126 109 93 93 112 122 126 116 99 100 91 94 113 106 339 4 30 97 127 177 236 204 162 237 230 197 182 169 163 170 164 156 156 159 160 160 165 166 166 164
31 16 12 7 10 13 14 19 20 22 37 56 75 94 111 118 119 127 132 137 131 108 94 73 64 95 82 74 39 23 32 44 44 49 50 65 89 89 90 91 100 109 108 101 95 99 110 124 112 83 70 103 120 123 101 46 32 64 112 175 27 104 190 340 33 41 116 151 46 125 173 269 219 200 191 178 178 191 177 164 164 166 167 168 171 171 173 172
327 339 358 4 8 9 18 31 34 43 60 76 88 96 105 112 113 120 129 138 135 116 90 63 59 89 74 48 24 25 32 41 38 39 44 62 93 93 88 92 101 115 115 104 96 101 115 111 82 62 60 98 111 108 78 60 4 3 100 171 158 126 162 262 51 34 19 278 23 34 165 197 243 194 189 196 199 195 181 172 174 175 176 176 178 180 182 181
288 304 326 5 11 3 21 46 60 81 93 94 95 99 105 108 109 116 122 122 112 106 95 70 61 75 60 29 13 18 22 27 30 39 46 53 80 85 91 104 106 115 118 107 99 97 96 80 76 62 52 63 51 83 96 34 255 261 64 96 136 141 135 152 179 13 16 51 32 27 115 150 237 171 179 201 201 194 189 182 182 184 185 186 188 190 191 191
272 281 298 4 22 357 28 72 89 118 122 111 105 106 105 104 116 121 118 118 102 96 79 43 44 90 47 18 10 12 18 23 27 39 42 49 68 71 99 118 114 123 117 88 55 43 59 57 73 80 30 36 22 56 120 206 190 183 115 123 121 94 106 93 205 336 13 58 64 46 88 118 170 163 180 197 197 200 200 192 192 193 194 197 198 198 199 201
263 265 273 300 50 0 59 107 122 140 138 129 119 112 107 104 109 99 89 89 78 78 57 33 47 113 31 7 11 21 30 33 35 43 56 69 72 72 90 97 103 111 86 58 20 21 46 48 49 53 351 346 327 0 171 199 161 156 141 129 126 104 70 37 131 335 32 69 42 31 110 156 181 186 193 195 200 208 207 201 199 201 205 207 208 208 208 208
271 265 262 271 129 68 145 137 138 133 123 124 120 116 115 102 90 71 69 70 68 70 78 62 61 81 55 18 21 38 39 41 45 46 42 76 85 76 70 70 74 68 51 36 358 19 57 67 38 4 286 293 292 269 194 106 106 117 102 87 92 112 77 303 199 333 14 71 19 12 120 172 198 211 208 199 202 210 206 202 206 210 214 215 216 215 215 216
313 286 262 269 200 181 173 155 152 141 125 129 127 119 128 92 90 92 79 72 68 67 67 68 69 66 51 29 27 29 39 47 51 47 31 18 130 50 27 36 64 55 13 342 38 33 61 70 4 305 271 281 306 263 129 81 71 76 93 100 64 84 118 309 173 342 2 66 40 43 120 203 220 220 218 203 203 215 209 205 213 218 220 223 224 223 223 222
327 298 271 250 206 191 186 172 174 180 177 180 197 258 251 127 118 113 100 86 70 64 58 59 65 59 51 38 30 22 31 38 37 39 36 47 85 44 38 53 64 50 346 4 65 40 52 56 314 316 299 299 11 43 92 79 72 68 80 105 67 75 113 352 34 11 11 75 182 166 153 240 242 234 228 212 211 221 219 220 226 226 226 228 229 228 227 226
331 296 271 232 208 196 190 180 186 199 207 213 228 226 155 131 118 106 100 98 76 55 46 46 47 40 36 33 26 31 51 40 15 21 31 49 66 59 66 66 60 56 8 24 97 90 70 358 311 341 7 84 50 33 62 72 65 68 78 97 116 130 110 232 277 24 24 70 149 157 179 266 248 245 244 224 222 230 232 234 238 237 236 237 238 236 232 230
353 308 267 224 199 192 187 180 182 187 191 196 189 159 144 131 119 108 97 95 83 45 39 38 32 30 25 14 10 34 54 47 21 14 20 39 58 57 69 71 64 64 30 48 87 91 96 308 320 8 37 90 90 41 45 73 49 9 100 114 140 189 156 175 170 106 41 33 106 127 11 293 224 222 250 232 225 234 238 238 239 238 239 243 245 243 239 238
356 351 300 232 193 184 182 181 177 176 174 170 164 155 147 135 121 111 87 85 77 10 21 28 22 22 14 9 16 59 56 47 29 14 10 27 42 72 77 62 60 58 269 73 73 78 61 338 346 39 34 50 86 53 25 91 82 354 234 157 159 170 149 118 106 95 36 0 153 108 26 300 258 222 241 228 216 235 237 238 241 238 237 239 240 242 242 242
349 350 316 242 211 186 188 193 181 174 169 167 169 162 151 138 111 88 61 71 38 336 358 11 13 15 9 5 9 115 62 34 26 16 18 29 29 93 88 21 56 110 207 125 80 95 29 6 37 79 52 48 69 56 2 105 98 26 245 146 125 128 136 139 134 105 43 288 280 66 106 267 305 273 249 234 225 240 237 238 243 240 236 236 237 240 241 241
338 329 295 249 223 202 204 216 200 182 175 173 174 168 156 132 83 50 36 45 5 321 357 357 360 16 19 16 20 111 17 328 3 21 29 37 30 98 91 353 51 85 188 109 74 50 357 12 26 47 47 50 59 38 332 112 101 33 304 93 113 133 152 163 143 121 166 151 29 31 121 234 289 275 287 258 236 251 251 245 245 241 237 236 237 240 240 241
330 314 287 251 227 223 216 216 203 192 185 178 175 171 159 116 53 21 68 70 338 329 11 357 16 24 31 38 44 70 46 354 9 12 25 43 52 83 80 39 109 101 10 104 133 278 1 19 13 33 44 43 68 297 254 126 96 276 271 314 173 150 142 143 124 114 99 65 349 276 159 60 273 267 336 358 240 262 257 248 245 240 237 236 237 239 240 242
335 321 292 252 232 228 210 199 198 190 177 175 175 174 158 94 24 22 80 109 315 6 21 353 8 359 0 39 41 42 39 32 32 359 26 52 59 77 85 73 105 92 41 77 138 202 164 43 26 81 65 11 267 266 222 137 12 247 153 70 71 85 78 89 101 98 56 40 266 238 172 164 278 274 321 24 253 256 251 249 247 243 239 236 238 239 240 242
349 351 336 246 223 215 202 194 190 177 164 172 178 177 157 88 43 58 74 223 328 354 345 359 351 340 356 23 24 21 31 30 17 16 44 58 59 69 83 86 79 80 47 48 78 177 296 275 87 85 63 271 260 271 206 161 9 133 121 62 54 43 38 55 53 78 66 322 261 226 172 143 296 274 240 200 220 220 223 250 258 249 244 240 240 241 241 242
1 7 7 246 202 198 192 185 178 172 165 172 180 177 158 94 58 93 121 259 328 337 350 11 351 355 19 47 14 3 18 16 10 23 36 34 37 39 47 58 40 46 30 21 26 350 359 28 343 331 337 324 297 288 223 149 78 100 101 82 88 4 9 27 357 41 95 259 260 236 151 130 221 261 245 226 236 218 203 233 253 251 250 247 245 243 242 243
13 17 22 45 181 187 177 172 168 167 166 166 172 172 155 74 22 104 265 310 325 334 12 336 329 15 28 39 18 348 358 10 14 37 43 25 40 28 28 46 29 41 18 346 2 358 5 353 313 309 327 14 33 309 326 351 31 58 59 72 95 345 3 354 316 348 209 245 257 277 68 164 233 250 250 246 249 235 220 230 245 254 260 262 257 251 247 245
23 28 34 48 103 165 158 155 150 153 156 154 158 158 114 71 22 225 289 333 8 320 1 286 325 22 32 31 10 337 5 6 1 34 51 57 66 37 2 17 70 115 144 174 54 6 345 307 335 355 332 7 53 111 1 334 359 23 77 94 106 83 46 288 279 299 261 264 278 295 323 280 273 264 242 234 238 237 237 246 254 259 262 266 268 262 256 250
38 42 45 51 68 120 142 139 141 144 147 146 147 133 64 70 207 197 296 268 277 344 23 16 340 12 46 52 345 320 38 19 354 30 22 36 55 12 333 352 20 82 110 80 92 109 106 291 325 23 315 354 40 124 151 142 15 345 161 124 125 146 144 231 234 221 256 281 294 303 292 214 233 265 233 229 254 259 255 259 260 258 256 260 264 260 255 253
49 52 59 62 64 93 128 138 145 144 146 145 114 67 92 195 231 157 235 254 286 337 326 22 56 50 13 350 335 356 89 348 9 48 28 34 79 19 345 328 349 41 88 63 274 139 113 240 263 295 288 9 38 252 132 102 46 294 165 94 89 179 147 152 199 186 189 313 298 268 234 216 219 267 261 261 282 272 261 260 256 253 253 253 256 255 253 254
63 61 69 72 66 78 115 144 151 148 150 140 69 58 160 198 203 173 194 245 129 228 299 340 54 65 350 316 340 5 21 1 30 52 31 51 149 220 302 271 312 42 95 120 205 151 80 272 278 317 293 124 91 222 173 108 202 56 60 158 215 173 121 107 243 33 83 314 280 239 251 283 315 293 296 354 302 277 264 254 247 249 254 253 254 257 257 257
66 67 68 69 66 72 108 150 158 160 162 96 79 98 211 196 164 184 194 153 173 114 93 44 1 59 344 310 317 327 349 5 35 51 45 51 153 210 291 285 256 69 121 157 200 173 139 276 291 255 215 280 27 172 111 71 142 116 243 209 188 99 80 96 27 352 40 253 270 244 246 278 317 285 315 351 292 270 262 247 246 252 254 252 256 261 264 263
58 63 62 59 57 61 96 148 164 173 156 72 81 131 175 172 207 216 183 137 170 82 82 116 235 97 179 220 302 308 346 2 3 38 61 288 343 170 197 280 221 27 15 164 158 98 118 314 299 237 180 302 345 77 338 5 48 126 171 153 115 116 252 64 128 237 308 264 277 293 282 264 208 223 276 268 239 243 251 245 241 249 249 251 259 267 270 269
29 46 48 41 46 53 69 134 167 169 121 77 92 164 146 170 233 189 153 112 134 91 84 163 193 67 140 156 246 297 355 37 24 47 95 197 308 198 177 201 213 349 6 151 150 264 107 110 286 282 251 309 356 66 240 298 34 65 85 60 39 133 173 182 147 173 188 238 272 312 322 262 218 210 213 224 225 220 232 238 228 239 249 257 265 273 276 273
323 44 32 14 29 54 60 114 137 109 86 96 152 164 136 160 141 91 96 124 130 91 98 189 145 85 139 161 198 272 23 82 132 98 161 207 232 233 206 185 213 294 12 112 114 19 72 121 245 294 334 316 293 204 200 189 161 113 65 309 318 70 153 234 226 147 140 172 222 288 296 265 238 197 198 221 230 213 215 225 231 242 254 265 271 276 279 276
107 76 18 9 32 63 79 94 75 64 81 106 132 120 94 147 134 91 89 120 106 82 121 150 134 133 154 124 201 233 30 44 96 109 235 229 170 242 215 183 191 256 67 83 76 144 136 148 204 282 320 243 239 239 194 174 165 157 175 202 189 148 131 153 287 285 105 161 190 169 276 276 251 168 200 223 228 228 227 225 232 246 257 269 276 280 280 277
121 84 12 34 65 104 119 85 37 40 97 87 86 103 123 132 115 91 99 104 87 67 85 115 112 118 146 152 198 194 136 107 153 143 209 219 200 201 194 174 177 184 130 127 259 220 161 111 126 264 256 228 251 278 160 174 165 145 182 194 144 133 133 151 237 262 102 222 201 126 261 275 254 173 203 224 228 241 244 234 238 252 264 274 280 283 282 277
88 75 40 77 91 99 106 80 16 27 76 85 96 92 99 116 97 91 89 50 25 53 61 75 92 88 159 198 159 147 173 194 193 188 205 229 231 207 185 175 180 175 138 127 269 192 142 79 58 286 293 306 307 326 39 115 120 151 231 168 145 167 151 158 189 185 175 221 191 110 255 261 264 200 218 242 249 254 256 250 247 256 268 277 280 285 286 282
80 65 53 77 144 141 104 113 115 78 82 108 90 64 64 81 66 62 78 16 27 111 100 101 141 119 146 138 112 155 199 187 203 220 186 197 225 202 180 184 196 193 190 218 166 149 181 286 83 342 330 337 340 349 345 335 236 213 242 198 173 147 106 109 174 134 244 225 182 195 260 258 260 271 250 257 261 262 259 256 255 261 270 277 282 287 289 286
83 63 52 57 96 146 111 125 136 134 140 112 86 40 46 64 47 49 89 80 71 113 120 121 143 126 120 110 83 116 207 185 248 262 112 218 246 208 192 204 213 210 220 220 161 145 180 202 133 131 276 277 288 296 282 275 230 223 245 218 206 172 150 172 169 134 238 230 176 192 258 267 270 278 275 264 253 260 263 262 263 265 270 279 287 291 292 291
103 75 46 51 69 84 90 107 117 118 143 128 86 24 62 75 25 48 81 96 91 105 101 107 147 115 69 94 101 291 263 259 33 140 187 236 258 228 200 207 215 218 207 184 168 142 111 226 188 180 199 219 235 245 232 159 220 251 254 236 217 200 184 151 108 188 215 207 200 225 251 275 284 279 277 275 267 266 270 270 270 269 274 285 291 293 296 296
87 68 54 56 63 73 78 89 101 108 141 143 110 150 137 107 310 15 50 186 129 123 100 76 123 140 164 166 141 263 265 309 43 216 211 224 253 283 217 207 216 219 187 167 182 137 87 293 236 197 217 235 246 256 258 286 253 249 252 248 226 203 179 162 205 225 174 113 259 246 236 259 274 272 272 275 275 275 271 270 274 277 283 289 291 292 295 297
93 103 108 114 111 79 69 87 111 105 107 115 111 141 128 114 189 177 182 164 105 131 142 39 318 214 195 180 145 183 267 337 280 239 224 230 265 347 288 219 212 206 183 172 195 143 120 258 240 191 238 255 262 270 267 253 257 252 248 249 240 212 186 196 227 232 184 205 256 260 246 246 264 273 273 267 268 274 277 278 282 284 285 285 285 288 293 297
120 117 96 94 114 120 112 127 124 107 86 77 99 128 151 162 195 211 197 118 42 325 141 204 262 240 197 179 137 153 221 232 276 262 223 198 226 241 268 245 206 191 178 165 199 168 149 247 237 153 280 269 260 269 270 253 265 271 258 251 244 227 212 216 236 241 227 233 253 266 270 267 266 269 271 273 276 280 283 284 283 281 279 279 280 286 293 295
135 137 126 110 98 100 111 125 125 105 64 46 95 153 167 162 188 221 198 162 173 262 167 194 243 219 182 179 155 189 217 190 200 241 194 165 231 212 201 220 177 166 179 159 169 167 173 254 243 75 321 280 264 295 306 261 252 270 271 262 246 232 230 234 243 247 243 246 252 260 270 273 267 266 271 278 281 283 281 278 277 275 276 277 278 285 292 292
145 146 137 120 96 65 111 125 118 101 70 25 131 169 192 193 193 177 175 203 200 194 191 201 208 176 149 182 196 234 245 223 224 242 219 204 230 223 216 221 156 140 169 193 172 138 161 254 358 60 339 284 325 14 327 295 273 271 273 269 252 227 220 228 235 230 221 233 249 262 268 263 265 276 281 271 270 271 267 265 269 274 277 277 278 285 291 292
137 139 140 121 91 342 140 111 70 91 127 208 159 165 201 214 191 163 146 243 223 213 221 199 171 150 159 208 224 251 265 258 256 261 252 245 248 247 251 252 214 179 170 164 164 128 142 165 116 77 285 276 311 355 321 321 314 283 264 252 238 221 214 228 246 238 217 214 233 246 245 251 268 296 289 266 256 251 256 263 271 277 279 279 280 286 291 291